Theta_e
311 308 307 308 310 309 307 305 305 306 306 306 305 304 304 304 305 311 313 312 313 318 334 347 347 348 351 353 350 346 358 355 354 355 355 354 356 350 349 350 348 348 349 347 346
311 310 309 309 309 309 307 306 304 303 304 305 306 306 305 307 313 315 314 313 312 323 344 346 346 348 349 353 353 356 359 350 347 349 354 355 355 353 353 349 351 351 347 346 346
311 310 309 307 307 306 306 307 307 305 304 306 307 309 306 311 314 313 316 321 311 320 344 343 344 346 349 350 351 352 353 347 345 346 350 355 355 352 352 352 351 354 351 347 347
309 307 306 306 305 305 305 304 306 306 306 305 310 311 309 313 315 319 322 325 313 338 344 345 347 348 351 351 348 350 348 347 346 345 348 354 353 354 350 346 345 349 348 347 348
306 305 305 305 304 304 304 305 306 307 308 309 311 313 313 316 310 316 318 315 341 343 342 344 349 349 352 354 348 348 349 348 347 346 344 351 354 354 352 350 348 348 348 348 348
308 305 304 304 304 304 303 304 306 305 305 310 312 314 313 307 309 310 317 327 340 340 338 341 345 346 348 348 353 347 349 348 344 344 348 353 354 353 351 349 350 350 349 348 347
306 303 303 303 303 302 303 306 306 308 307 310 314 313 316 310 310 311 319 336 338 334 338 337 342 346 337 329 337 336 338 336 340 343 346 351 356 356 351 350 351 350 350 349 348
302 302 302 302 301 301 304 305 316 316 314 314 315 314 313 308 310 319 328 333 341 336 331 336 341 343 331 326 326 333 337 340 340 343 344 349 351 353 351 351 352 350 350 349 348
302 302 302 301 301 302 304 309 317 315 317 316 315 316 313 315 313 311 325 325 333 333 328 331 332 334 327 334 331 328 334 336 338 340 342 349 346 348 352 352 353 351 351 350 349
302 302 302 302 301 303 307 315 319 318 317 318 316 318 315 317 318 313 316 325 330 329 327 324 329 331 326 330 330 331 331 331 335 334 338 348 345 343 354 354 354 352 351 351 350
303 303 302 302 301 302 307 308 309 312 307 323 323 319 320 318 321 317 314 322 322 327 326 324 325 326 326 326 326 326 329 334 333 330 337 338 339 341 352 354 355 353 352 351 350
302 302 302 301 301 303 306 307 304 303 308 310 308 311 316 315 318 318 313 321 319 322 324 324 325 323 323 323 324 324 326 331 329 325 328 332 336 341 350 354 354 354 353 351 349
301 302 302 302 302 302 304 304 303 304 309 311 310 311 312 313 316 319 314 316 319 318 321 323 322 322 324 324 324 323 324 327 330 326 335 336 337 347 350 353 353 353 352 350 350
301 301 302 302 302 302 304 303 304 304 312 314 312 313 311 314 316 317 317 317 318 319 319 320 322 322 323 324 324 323 322 323 327 329 333 339 340 347 350 355 355 354 353 351 350
301 301 302 302 303 305 304 304 304 304 312 317 312 311 313 317 315 316 317 318 319 321 322 322 322 324 324 323 324 323 322 323 324 329 329 331 336 337 349 355 354 354 354 352 350
301 301 302 303 303 303 303 304 304 312 314 319 314 314 315 315 315 318 318 320 320 321 321 322 320 323 325 324 324 324 324 324 324 326 331 331 332 336 345 352 353 351 352 352 351
301 301 302 303 303 303 305 305 312 315 314 317 316 316 316 317 314 317 320 321 323 322 323 322 321 322 323 325 324 324 325 326 327 328 330 330 329 332 333 341 346 350 351 350 350
301 302 303 303 303 303 305 307 313 312 314 313 314 315 318 316 317 317 320 322 323 322 323 323 323 321 321 324 323 325 323 323 326 326 326 327 330 331 330 330 339 341 346 349 349
301 302 302 302 303 303 308 305 310 312 310 311 313 317 317 315 316 317 319 322 323 322 324 323 323 321 321 322 323 324 326 323 322 322 324 326 328 328 330 332 332 342 344 346 348
302 300 302 303 303 305 307 308 310 310 312 311 314 313 316 316 318 317 320 317 320 320 320 323 324 323 321 321 322 322 323 322 324 324 324 324 326 328 333 333 335 338 343 344 345
301 304 302 303 303 307 307 308 308 310 311 312 312 312 314 316 316 317 318 316 316 318 322 322 323 324 322 322 323 321 324 323 323 323 323 322 323 328 333 336 334 335 340 341 342
300 304 302 303 304 305 306 305 308 310 311 311 312 313 315 315 315 317 319 317 313 318 323 321 320 327 325 324 323 322 323 324 325 327 323 323 323 325 329 333 334 335 336 337 339
302 302 302 302 306 305 304 305 306 309 310 313 312 313 313 315 315 317 317 314 312 317 319 319 323 327 326 325 322 324 324 324 324 324 329 323 322 326 327 327 328 332 334 336 340
303 305 303 302 302 304 305 305 306 306 309 310 312 310 313 314 315 315 315 314 311 315 316 317 321 325 328 327 323 325 324 324 324 326 326 327 324 325 326 327 329 330 331 332 339
303 304 303 304 304 304 305 305 306 306 305 308 309 310 310 313 311 314 313 312 311 313 312 316 319 318 319 319 320 322 322 322 324 326 329 327 329 327 326 329 331 331 332 333 336
305 305 303 302 304 304 304 304 305 306 305 305 310 308 307 310 310 311 311 312 311 312 312 313 315 319 317 318 319 321 322 322 322 323 323 324 326 326 327 329 330 331 332 334 335
303 303 303 303 304 304 305 304 306 304 304 306 307 306 306 306 306 307 307 309 309 311 312 313 314 316 317 317 319 322 322 323 323 323 323 325 325 326 326 327 331 333 334 334 335
Wind_Speed
26 27 28 27 26 25 25 25 24 24 22 21 19 19 18 18 18 9 10 19 13 14 19 25 19 19 13 6 1 0 2 2 3 4 2 12 6 5 5 14 4 5 8 18 29
27 28 28 28 28 27 27 26 26 25 23 23 21 19 16 16 14 14 31 23 16 24 29 31 20 22 7 8 4 3 2 5 4 4 4 11 11 12 6 14 6 10 15 30 31
28 29 30 30 30 29 29 28 29 27 25 22 20 18 13 12 6 7 3 6 23 28 26 23 27 17 8 6 7 6 4 2 4 7 5 10 10 10 11 12 10 18 23 27 30
29 31 32 33 34 34 32 36 33 29 27 23 18 15 8 3 6 1 6 9 28 26 30 23 19 11 9 9 9 5 11 8 3 2 3 12 9 9 11 3 11 18 26 27 24
30 32 34 36 37 37 38 40 33 29 25 21 14 9 2 4 12 10 2 16 29 27 30 17 23 12 12 9 9 11 5 4 11 11 8 10 13 10 12 5 15 22 25 24 22
30 35 37 39 41 41 44 35 33 32 26 18 10 4 3 8 7 11 9 24 31 30 26 20 16 12 9 6 13 6 12 10 8 11 6 12 9 7 9 15 18 24 26 23 23
33 37 39 41 44 44 44 36 36 30 23 16 11 9 5 15 5 9 15 24 32 35 25 26 10 15 5 5 10 10 9 6 11 10 6 9 8 13 12 17 21 21 23 22 21
36 38 40 44 45 45 38 35 18 12 4 7 14 10 9 5 18 7 14 12 19 22 24 17 10 14 3 3 1 4 5 7 6 12 8 15 12 16 19 20 21 21 20 21 22
37 40 43 47 48 40 35 13 14 17 12 20 11 5 7 2 7 20 17 11 19 18 12 13 11 5 4 11 7 2 7 9 4 14 7 15 13 14 23 20 21 21 21 21 20
38 42 44 47 48 33 27 2 6 8 8 2 5 4 6 3 6 12 19 22 10 16 9 8 10 11 10 12 13 8 8 5 9 6 11 16 17 5 22 23 23 23 21 21 22
40 42 46 47 42 27 24 1 3 3 3 7 3 6 4 4 7 6 25 20 11 17 14 15 12 22 24 17 13 9 7 13 9 6 6 13 16 13 19 21 21 22 22 22 24
39 41 44 45 32 19 13 6 7 8 13 14 22 17 20 5 2 12 28 13 13 16 15 8 25 20 14 17 19 17 17 17 9 6 4 7 11 10 18 24 24 24 23 24 20
38 40 42 44 19 16 6 9 11 5 6 9 8 7 8 13 7 15 26 16 20 21 27 24 6 20 17 15 19 23 23 18 8 4 5 8 12 6 13 15 18 21 21 18 23
39 40 39 38 6 21 3 11 23 2 4 6 5 5 6 7 9 14 29 16 12 26 22 21 19 22 21 23 21 23 20 21 17 9 10 4 13 8 13 18 21 21 22 24 23
40 39 38 19 11 8 12 27 16 4 6 5 4 7 8 10 1 12 33 14 20 18 15 18 24 21 25 29 20 17 14 17 19 14 12 15 9 16 8 15 22 23 25 25 26
41 40 32 12 12 19 28 24 4 4 9 2 3 2 5 10 3 4 16 13 9 11 19 18 8 22 18 20 22 11 10 8 3 9 16 22 14 16 12 19 18 22 24 24 25
41 38 17 8 9 31 24 4 4 6 8 6 4 7 6 2 5 5 18 26 17 16 16 20 13 15 17 17 20 20 17 8 10 11 14 14 13 19 9 17 19 21 25 26 27
40 32 9 9 23 29 9 3 8 5 5 10 9 14 3 6 1 2 13 23 22 19 14 18 15 20 19 19 13 28 23 9 15 16 14 7 15 13 17 20 17 19 21 22 23
38 27 9 17 26 12 3 4 3 6 9 13 13 3 1 3 6 4 2 20 20 12 14 19 18 13 20 18 20 19 25 23 12 1 5 12 15 12 11 17 22 19 18 19 23
27 11 8 32 14 3 2 4 3 10 14 8 5 7 6 10 5 4 3 7 6 3 4 5 7 13 27 17 22 14 19 10 13 14 15 8 10 14 18 20 19 20 20 20 21
8 5 15 30 7 3 3 5 6 9 14 7 7 7 7 6 7 5 6 8 13 6 5 2 6 3 15 23 23 11 20 13 12 12 10 9 11 7 16 19 22 23 22 22 21
5 3 19 22 5 3 4 12 9 9 8 5 6 5 3 5 4 5 3 6 14 10 1 4 3 11 13 12 21 24 19 26 12 12 15 8 8 2 12 11 15 19 19 19 18
3 3 8 9 4 7 8 7 9 9 8 6 5 6 5 4 4 4 5 4 13 12 7 6 3 11 10 9 9 24 22 24 21 14 19 12 7 9 10 8 11 12 12 12 11
3 4 2 3 1 4 8 6 8 8 3 7 6 6 6 1 2 3 5 4 10 8 10 4 1 9 14 9 4 5 14 23 24 17 18 22 17 9 11 9 13 14 15 10 10
2 2 3 4 5 10 5 6 12 8 7 5 2 7 6 2 3 4 6 6 4 9 6 4 2 5 6 8 8 10 13 11 19 25 23 21 24 19 15 13 14 10 9 11 11
2 3 1 5 8 8 6 4 9 9 9 8 4 10 11 3 4 7 8 4 3 5 4 6 2 3 10 10 12 14 15 15 17 19 19 22 25 8 14 19 18 18 18 15 14
2 3 2 2 4 6 4 4 8 15 7 6 9 15 12 11 10 14 12 12 13 9 5 4 2 3 7 8 13 15 21 20 17 16 16 22 18 16 19 13 18 18 16 16 14
Wind_Direction
359 358 353 349 347 343 341 339 335 331 329 328 326 326 325 321 309 283 239 242 228 212 155 150 158 157 157 165 198 187 294 264 227 202 193 156 132 124 117 143 173 162 148 144 154
354 353 350 348 344 340 338 336 333 329 325 324 322 322 326 326 314 259 268 260 211 179 155 160 160 158 168 167 185 207 233 223 185 225 220 173 160 151 152 159 136 99 121 142 154
351 350 350 348 344 340 336 332 328 321 318 317 316 317 326 330 282 250 273 241 189 181 165 163 154 161 165 163 185 180 230 242 218 219 196 176 175 160 147 185 183 160 150 154 163
351 352 350 347 345 342 336 334 325 316 311 309 310 312 324 317 260 181 337 181 170 167 152 152 163 176 184 184 192 211 241 248 280 139 199 189 170 180 179 148 184 166 160 160 170
351 352 352 349 345 341 338 333 323 313 302 298 297 305 324 225 247 254 13 144 161 163 163 167 173 180 197 189 179 236 238 215 255 278 250 185 190 179 195 98 149 153 161 168 174
348 352 350 348 344 342 339 333 326 311 299 285 268 239 191 246 249 227 212 160 168 172 177 173 185 182 188 204 207 206 225 264 266 266 193 188 192 198 169 134 145 160 167 174 183
350 350 349 347 343 342 338 333 321 304 285 266 224 185 215 242 225 206 188 177 176 178 180 189 171 186 174 194 231 251 259 261 235 213 203 187 199 217 156 149 156 175 171 178 187
354 351 350 349 346 343 340 334 342 342 289 206 178 172 246 258 212 153 172 182 191 193 194 179 173 205 228 320 249 227 212 226 158 192 186 178 248 211 167 171 169 175 182 183 190
356 354 351 350 348 342 343 336 36 55 101 121 135 203 250 245 206 204 180 176 177 180 182 182 184 200 223 239 270 239 227 216 211 192 156 199 255 205 181 184 172 181 188 189 192
356 355 351 350 349 350 351 32 107 76 99 60 98 243 237 222 170 164 179 151 155 168 181 168 199 214 207 199 212 215 222 230 231 171 190 207 241 197 189 190 184 186 189 195 194
353 352 351 349 348 1 357 356 328 198 314 237 206 281 285 314 146 157 165 145 139 169 183 193 196 210 213 211 224 219 236 239 237 238 223 226 245 218 195 201 195 190 193 198 203
352 351 351 348 347 355 30 65 74 293 301 254 246 255 258 319 211 155 169 158 171 182 175 176 222 210 207 207 217 225 234 242 257 260 279 251 259 227 197 207 199 194 194 203 199
352 351 351 345 348 351 41 88 353 339 257 286 219 229 224 189 222 185 181 192 189 192 197 200 189 204 198 200 208 220 223 219 232 337 240 255 255 209 213 213 207 210 208 207 199
351 350 350 344 2 338 75 332 332 240 277 261 228 241 172 163 231 197 196 179 189 205 199 220 211 192 204 217 206 222 219 237 244 258 250 229 265 213 208 206 208 209 207 208 207
349 349 347 349 317 326 314 320 325 172 288 114 146 156 154 196 28 197 188 205 201 185 178 202 201 197 211 210 204 227 207 221 239 247 263 236 250 248 207 213 216 212 212 211 209
346 347 346 347 336 330 323 322 158 225 241 102 90 148 173 222 238 102 188 215 204 188 213 207 206 193 206 209 201 189 173 193 210 241 239 239 233 249 210 216 217 217 220 215 212
343 344 348 348 335 341 333 302 206 234 350 12 359 345 319 268 219 201 188 193 189 188 193 202 191 201 192 184 200 196 181 186 218 219 238 220 229 240 232 218 218 210 216 216 211
341 345 12 337 335 336 329 232 230 16 349 349 335 310 214 347 204 269 193 194 205 205 190 201 212 195 190 202 187 201 199 205 214 233 244 195 237 237 223 234 231 233 224 219 213
341 348 12 354 340 334 308 229 336 9 350 331 323 309 328 1 333 322 171 202 200 213 210 204 221 191 179 194 184 196 211 216 256 150 262 223 247 264 239 224 217 221 225 217 212
337 333 334 349 352 349 289 303 322 12 341 328 324 354 342 348 355 3 88 0 247 39 317 191 219 202 195 189 201 186 180 185 215 232 238 219 247 234 198 213 212 215 213 221 219
357 351 352 349 355 38 19 321 308 335 340 323 321 309 326 343 327 3 28 47 5 328 5 330 232 133 171 204 190 181 189 206 202 221 227 247 246 208 219 213 213 216 213 215 217
359 350 351 359 39 13 350 322 308 328 340 312 304 312 309 343 327 20 81 42 0 348 35 28 269 220 203 189 214 203 196 197 204 187 225 259 252 263 228 221 228 225 223 228 226
357 295 347 1 39 354 332 306 314 343 339 327 322 354 341 344 299 46 33 31 6 17 22 352 223 201 227 214 199 218 215 207 217 233 217 210 213 250 253 263 232 238 239 233 223
334 340 338 42 65 357 339 320 328 339 348 347 355 351 344 331 341 328 356 4 349 8 346 322 329 257 223 230 22 226 219 212 213 221 225 226 235 227 267 252 259 261 264 250 233
356 346 342 320 344 326 305 298 309 349 343 8 29 31 344 288 318 346 7 334 356 6 6 8 300 327 305 299 293 270 262 243 234 232 230 239 237 232 246 279 276 276 269 277 237
309 324 332 289 288 316 315 305 311 334 331 314 305 6 334 360 339 312 343 346 338 352 27 356 283 305 301 293 284 275 255 251 244 242 254 258 260 260 240 238 251 271 285 280 276
259 241 177 283 277 296 297 300 312 324 305 335 326 325 312 323 326 306 283 270 270 289 312 312 288 252 258 304 308 271 244 241 243 243 240 242 251 254 249 240 247 247 250 250 245